Zurück zum Katalog

FENGYUN 1C DEB

AktivSSO
NORAD 30648·DEBRIS·🇨🇳 China

Gestartet May 10, 1999 von Taiyuan Satellite Launch Center

Loading…

Nächste Überflüge (nächste 24 Stunden)

TLE

AktuellSource: Space-Track

Epoche: Sep 14, 2026, 13:25 UTC

1 30648U 99025APF 26257.55926547  .00004132  00000-0  10327-2 0  9996
2 30648  98.6440   4.2757 0030567  11.7950   1.1728 14.51801609 18657

Verfolge FENGYUN 1C DEB in Echtzeit mit AllMySat

Download on the App Store